Total_Precipitation_Accumulation
0.25 0.27 0.28 0.30 0.33 0.37 0.39 0.43 0.47 0.44 0.44 0.40 0.36 0.37 0.39 0.52 0.72 1.01 0.60 0.33 0.51 0.37 0.10 0.02 0.01 0.01 0.02 0.03 0.04 0.02 0.06 0.04 0.02 0.05 0.07 0.03 0.03 0.01 0.01 0.00 0.00 0.00 0.02 0.03 0.03 0.09 0.02 0.00 0.00 0.00 0.00 0.00 0.00 0.00
0.28 0.28 0.31 0.35 0.36 0.37 0.37 0.40 0.45 0.49 0.57 0.59 0.54 0.48 0.49 0.50 0.71 1.09 0.80 0.44 0.58 0.78 0.41 0.09 0.06 0.06 0.06 0.08 0.11 0.14 0.11 0.05 0.05 0.05 0.04 0.04 0.06 0.05 0.02 0.02 0.00 0.00 0.00 0.00 0.00 0.00 0.00 0.00 0.00 0.00 0.00 0.00 0.00 0.00
0.29 0.31 0.32 0.34 0.34 0.33 0.32 0.34 0.34 0.42 0.51 0.64 0.74 0.80 0.78 0.74 0.84 1.18 0.88 0.56 0.88 1.01 0.67 0.34 0.17 0.12 0.13 0.16 0.19 0.23 0.20 0.12 0.10 0.06 0.10 0.16 0.15 0.06 0.04 0.02 0.00 0.00 0.00 0.00 0.00 0.00 0.00 0.00 0.00 0.00 0.00 0.00 0.00 0.00
0.29 0.31 0.33 0.35 0.38 0.36 0.33 0.32 0.34 0.38 0.46 0.59 0.73 0.88 1.03 1.11 1.26 1.49 1.24 0.74 0.94 1.01 0.82 0.43 0.10 0.07 0.07 0.13 0.21 0.26 0.22 0.19 0.19 0.20 0.29 0.29 0.17 0.09 0.06 0.01 0.00 0.00 0.00 0.02 0.04 0.00 0.02 0.01 0.00 0.00 0.00 0.00 0.00 0.00
0.30 0.33 0.33 0.34 0.35 0.30 0.27 0.29 0.31 0.36 0.38 0.42 0.62 0.77 0.95 1.10 1.38 1.83 2.02 1.49 1.04 1.12 0.96 0.40 0.17 0.09 0.11 0.17 0.23 0.26 0.25 0.23 0.24 0.27 0.29 0.20 0.13 0.12 0.16 0.14 0.05 0.00 0.00 0.03 0.05 0.01 0.05 0.04 0.01 0.00 0.00 0.00 0.00 0.00
0.32 0.43 0.41 0.41 0.38 0.31 0.27 0.30 0.33 0.37 0.30 0.32 0.48 0.60 0.90 1.07 1.28 1.73 2.42 2.22 1.87 1.61 1.76 1.12 0.45 0.12 0.09 0.10 0.13 0.17 0.18 0.19 0.24 0.28 0.28 0.25 0.12 0.14 0.39 0.16 0.00 0.00 0.00 0.00 0.01 0.03 0.06 0.05 0.01 0.00 0.00 0.00 0.00 0.00
0.34 0.50 0.47 0.40 0.35 0.35 0.30 0.28 0.35 0.36 0.28 0.33 0.43 0.63 0.79 1.20 1.40 1.68 1.93 1.36 1.29 1.58 2.23 2.12 1.11 0.35 0.19 0.22 0.32 0.36 0.36 0.36 0.39 0.46 0.41 0.28 0.15 0.32 0.42 0.13 0.01 0.00 0.00 0.00 0.04 0.11 0.11 0.03 0.00 0.00 0.00 0.00 0.00 0.00
0.23 0.36 0.44 0.32 0.24 0.21 0.28 0.36 0.43 0.40 0.28 0.33 0.41 0.43 0.69 1.06 1.34 1.32 1.20 1.16 1.05 1.41 2.28 2.32 1.37 0.39 0.15 0.16 0.27 0.37 0.45 0.53 0.62 0.60 0.48 0.28 0.29 0.45 0.36 0.11 0.01 0.01 0.07 0.16 0.18 0.12 0.05 0.01 0.00 0.00 0.00 0.00 0.00 0.00
0.13 0.22 0.40 0.42 0.26 0.22 0.33 0.50 0.52 0.47 0.40 0.47 0.60 0.50 0.72 0.86 0.82 0.87 1.03 1.13 1.09 1.56 2.22 1.91 0.99 0.35 0.13 0.11 0.19 0.33 0.48 0.64 0.68 0.56 0.37 0.29 0.33 0.30 0.19 0.08 0.05 0.13 0.22 0.20 0.12 0.04 0.01 0.00 0.00 0.00 0.00 0.00 0.00 0.00
0.09 0.16 0.27 0.42 0.39 0.29 0.29 0.46 0.51 0.52 0.66 0.63 0.66 0.50 0.50 0.44 0.62 0.81 0.98 1.16 1.30 1.57 1.55 1.11 0.64 0.32 0.19 0.19 0.38 0.59 0.68 0.62 0.58 0.36 0.26 0.30 0.22 0.10 0.11 0.19 0.22 0.21 0.14 0.07 0.04 0.01 0.00 0.00 0.00 0.00 0.00 0.00 0.00 0.00
0.13 0.20 0.22 0.36 0.43 0.42 0.37 0.40 0.52 1.03 1.06 0.65 0.61 0.32 0.19 0.39 0.67 0.96 1.08 1.05 0.97 0.78 0.63 0.39 0.32 0.25 0.29 0.46 0.64 0.82 0.67 0.52 0.41 0.24 0.18 0.20 0.08 0.03 0.13 0.24 0.23 0.15 0.08 0.03 0.00 0.00 0.00 0.00 0.00 0.00 0.00 0.00 0.00 0.00
0.12 0.18 0.28 0.27 0.46 0.55 0.50 0.49 0.70 0.92 0.62 0.55 0.49 0.34 0.39 0.48 0.59 0.70 0.74 0.61 0.49 0.39 0.27 0.18 0.29 0.36 0.47 0.48 0.60 0.61 0.40 0.34 0.26 0.09 0.10 0.10 0.03 0.07 0.13 0.13 0.10 0.06 0.03 0.01 0.00 0.00 0.00 0.00 0.00 0.00 0.00 0.00 0.00 0.00
0.10 0.16 0.27 0.30 0.31 0.58 0.81 0.90 0.92 0.90 0.83 0.96 0.87 0.59 0.33 0.32 0.36 0.37 0.28 0.23 0.22 0.20 0.18 0.17 0.28 0.35 0.42 0.45 0.47 0.42 0.37 0.27 0.12 0.09 0.09 0.05 0.07 0.10 0.07 0.03 0.01 0.00 0.00 0.00 0.00 0.00 0.00 0.00 0.00 0.00 0.00 0.00 0.00 0.00
0.15 0.15 0.18 0.26 0.29 0.50 0.93 1.44 1.05 0.76 1.05 0.96 0.62 0.41 0.25 0.14 0.10 0.10 0.12 0.13 0.22 0.26 0.24 0.23 0.24 0.25 0.27 0.29 0.30 0.23 0.23 0.14 0.12 0.09 0.06 0.07 0.06 0.03 0.00 0.00 0.00 0.00 0.00 0.00 0.00 0.00 0.00 0.00 0.00 0.00 0.00 0.00 0.00 0.00
0.20 0.17 0.22 0.25 0.34 0.54 1.25 1.55 1.21 0.85 0.78 0.61 0.31 0.17 0.12 0.07 0.08 0.11 0.16 0.19 0.25 0.28 0.23 0.20 0.20 0.18 0.25 0.24 0.16 0.13 0.16 0.13 0.08 0.06 0.04 0.02 0.01 0.00 0.00 0.00 0.00 0.00 0.00 0.00 0.00 0.00 0.00 0.00 0.00 0.00 0.00 0.00 0.00 0.00
0.26 0.38 0.23 0.22 0.41 0.90 1.48 1.48 1.40 1.13 0.82 0.47 0.21 0.08 0.07 0.05 0.06 0.07 0.11 0.11 0.13 0.15 0.10 0.09 0.10 0.12 0.16 0.13 0.09 0.09 0.08 0.06 0.04 0.01 0.00 0.01 0.01 0.00 0.00 0.00 0.00 0.00 0.00 0.00 0.00 0.00 0.00 0.00 0.00 0.00 0.00 0.00 0.00 0.00
0.46 0.18 0.07 0.30 0.68 1.65 1.36 1.30 1.44 0.98 0.69 0.34 0.16 0.11 0.12 0.09 0.07 0.06 0.06 0.05 0.05 0.05 0.06 0.08 0.08 0.07 0.07 0.03 0.01 0.01 0.01 0.01 0.00 0.00 0.01 0.00 0.00 0.01 0.00 0.00 0.00 0.00 0.00 0.00 0.00 0.00 0.00 0.00 0.00 0.00 0.00 0.00 0.00 0.00
0.13 0.08 0.20 0.42 0.88 1.11 1.54 1.10 0.91 0.47 0.26 0.12 0.11 0.16 0.15 0.09 0.05 0.04 0.02 0.01 0.00 0.01 0.01 0.02 0.02 0.04 0.03 0.01 0.00 0.00 0.00 0.01 0.02 0.04 0.04 0.03 0.02 0.02 0.01 0.01 0.01 0.01 0.00 0.00 0.00 0.00 0.00 0.00 0.00 0.00 0.00 0.00 0.00 0.00
0.08 0.08 0.09 0.10 0.37 0.75 0.91 0.79 0.43 0.15 0.09 0.08 0.14 0.21 0.12 0.04 0.05 0.06 0.06 0.04 0.03 0.02 0.04 0.04 0.07 0.03 0.02 0.01 0.01 0.02 0.04 0.05 0.06 0.05 0.04 0.04 0.03 0.02 0.02 0.02 0.02 0.01 0.01 0.00 0.00 0.00 0.00 0.00 0.00 0.01 0.00 0.01 0.01 0.00
0.40 0.38 0.26 0.33 0.58 0.70 0.38 0.25 0.10 0.05 0.10 0.13 0.14 0.15 0.06 0.03 0.03 0.04 0.06 0.06 0.06 0.08 0.07 0.06 0.04 0.03 0.02 0.02 0.03 0.04 0.04 0.02 0.01 0.02 0.03 0.03 0.03 0.02 0.02 0.02 0.01 0.01 0.00 0.00 0.00 0.00 0.00 0.00 0.00 0.00 0.00 0.02 0.01 0.00
0.59 0.91 0.59 0.40 0.51 0.37 0.23 0.12 0.04 0.05 0.06 0.10 0.17 0.11 0.07 0.02 0.02 0.03 0.04 0.04 0.05 0.04 0.03 0.03 0.04 0.04 0.05 0.05 0.04 0.03 0.02 0.02 0.02 0.01 0.01 0.01 0.02 0.02 0.02 0.01 0.00 0.00 0.00 0.00 0.00 0.00 0.00 0.00 0.00 0.00 0.00 0.00 0.00 0.00
0.58 0.60 0.60 0.58 0.40 0.16 0.10 0.10 0.07 0.03 0.01 0.07 0.07 0.02 0.03 0.02 0.03 0.05 0.05 0.05 0.05 0.04 0.04 0.04 0.05 0.05 0.05 0.04 0.05 0.04 0.04 0.02 0.02 0.01 0.01 0.01 0.02 0.02 0.01 0.00 0.00 0.00 0.00 0.00 0.00 0.00 0.00 0.00 0.01 0.00 0.00 0.00 0.00 0.00
0.30 0.33 0.40 0.34 0.19 0.08 0.13 0.04 0.02 0.03 0.02 0.03 0.03 0.01 0.02 0.03 0.04 0.05 0.05 0.04 0.04 0.04 0.08 0.09 0.08 0.08 0.06 0.06 0.05 0.05 0.04 0.02 0.01 0.01 0.00 0.00 0.00 0.00 0.00 0.00 0.00 0.00 0.00 0.00 0.00 0.00 0.00 0.00 0.00 0.00 0.00 0.00 0.00 0.00
0.14 0.22 0.24 0.19 0.10 0.06 0.04 0.02 0.02 0.02 0.02 0.02 0.02 0.02 0.03 0.05 0.08 0.07 0.05 0.03 0.05 0.08 0.09 0.09 0.08 0.07 0.07 0.06 0.05 0.05 0.04 0.02 0.01 0.01 0.01 0.00 0.00 0.01 0.00 0.00 0.00 0.00 0.00 0.00 0.00 0.00 0.00 0.00 0.00 0.00 0.00 0.00 0.00 0.00
0.18 0.17 0.15 0.09 0.04 0.02 0.02 0.02 0.02 0.02 0.02 0.03 0.04 0.05 0.04 0.05 0.05 0.03 0.01 0.03 0.05 0.06 0.07 0.08 0.07 0.07 0.06 0.05 0.05 0.04 0.03 0.02 0.01 0.00 0.00 0.00 0.00 0.01 0.01 0.01 0.01 0.00 0.00 0.01 0.01 0.00 0.00 0.00 0.00 0.00 0.00 0.00 0.00 0.00
0.01 0.01 0.01 0.01 0.00 0.00 0.01 0.01 0.01 0.02 0.02 0.04 0.05 0.03 0.03 0.03 0.02 0.02 0.01 0.02 0.03 0.04 0.05 0.05 0.05 0.04 0.04 0.03 0.03 0.02 0.01 0.00 0.00 0.00 0.00 0.00 0.00 0.00 0.01 0.01 0.01 0.01 0.01 0.01 0.01 0.01 0.01 0.01 0.01 0.01 0.00 0.00 0.00 0.00
0.00 0.00 0.00 0.00 0.01 0.01 0.02 0.03 0.03 0.02 0.02 0.02 0.03 0.04 0.04 0.03 0.02 0.01 0.01 0.02 0.02 0.03 0.03 0.03 0.03 0.03 0.02 0.02 0.02 0.01 0.01 0.01 0.01 0.01 0.01 0.01 0.00 0.00 0.01 0.01 0.01 0.01 0.01 0.01 0.02 0.02 0.02 0.01 0.01 0.01 0.01 0.00 0.00 0.00
0.00 0.00 0.00 0.00 0.01 0.02 0.03 0.03 0.02 0.02 0.03 0.03 0.04 0.03 0.02 0.01 0.00 0.01 0.02 0.02 0.02 0.02 0.02 0.02 0.02 0.02 0.02 0.02 0.01 0.01 0.01 0.00 0.01 0.01 0.01 0.01 0.01 0.01 0.01 0.01 0.01 0.02 0.02 0.02 0.03 0.04 0.03 0.02 0.02 0.01 0.01 0.01 0.01 0.00
0.00 0.00 0.00 0.00 0.00 0.00 0.00 0.00 0.00 0.02 0.03 0.02 0.01 0.00 0.00 0.00 0.01 0.01 0.01 0.01 0.01 0.01 0.01 0.01 0.01 0.01 0.02 0.01 0.01 0.01 0.01 0.01 0.01 0.01 0.01 0.01 0.01 0.02 0.01 0.01 0.01 0.01 0.01 0.01 0.04 0.06 0.06 0.06 0.06 0.03 0.02 0.03 0.02 0.03
0.00 0.00 0.00 0.00 0.00 0.00 0.01 0.01 0.01 0.01 0.01 0.00 0.00 0.00 0.00 0.01 0.01 0.01 0.01 0.01 0.01 0.01 0.01 0.01 0.01 0.01 0.01 0.01 0.01 0.01 0.02 0.02 0.02 0.02 0.02 0.02 0.02 0.02 0.02 0.02 0.02 0.01 0.01 0.01 0.02 0.03 0.06 0.09 0.08 0.07 0.05 0.05 0.04 0.04
0.00 0.00 0.00 0.00 0.00 0.00 0.01 0.01 0.01 0.00 0.00 0.00 0.00 0.00 0.00 0.00 0.01 0.01 0.00 0.01 0.01 0.01 0.01 0.01 0.01 0.01 0.01 0.02 0.02 0.02 0.02 0.02 0.03 0.03 0.04 0.04 0.04 0.05 0.04 0.03 0.03 0.02 0.02 0.02 0.02 0.03 0.03 0.04 0.05 0.05 0.05 0.05 0.04 0.05
0.00 0.00 0.00 0.00 0.00 0.01 0.01 0.00 0.00 0.00 0.00 0.00 0.00 0.00 0.00 0.00 0.00 0.00 0.00 0.00 0.00 0.00 0.01 0.01 0.01 0.01 0.01 0.02 0.02 0.02 0.03 0.02 0.02 0.03 0.04 0.04 0.06 0.08 0.04 0.02 0.02 0.03 0.03 0.03 0.04 0.04 0.04 0.04 0.04 0.04 0.04 0.04 0.04 0.04
0.00 0.00 0.00 0.00 0.00 0.00 0.00 0.00 0.00 0.00 0.00 0.00 0.00 0.00 0.00 0.00 0.00 0.00 0.00 0.00 0.00 0.00 0.00 0.00 0.01 0.01 0.01 0.01 0.01 0.01 0.02 0.01 0.02 0.04 0.06 0.09 0.15 0.28 0.17 0.07 0.04 0.04 0.04 0.03 0.04 0.05 0.04 0.04 0.04 0.04 0.04 0.04 0.03 0.03